STARLINK-2413, 47827

Orbit data source: Space-Track

STARLINK-2413, 47827 is a payload satellite owned by SpaceX/Seattle (US) in LEO that was launched on Thu, 11 Mar 2021 UTC via an FALCON 9 launch vehicle from the Air Force Eastern Test Range (AFETR). Payload-class satellites include a variety of spacecraft equipped with specific instruments for various scientific and technological missions. These include communications satellites like Starlink; space stations such as the ISS; scientific satellites like the Hubble; Earth observation satellites from companies like Planet Labs, Umbra, and HawkEye 360; GPS; miniature CubeSats for education and research; and military/defense satellites.

Loading next visibility...
Identifier
47827, 2021-018AS
Orbit
LEO
Country
Flag of USUS
Related business
Manufacturer
SpaceX/Seattle
Mission
Operational Commercial Communications
Bus & Motor
STARLINK, Unknown motor
Mass
260 kg wet, ~248 kg dry
Launch date (UTC)
2021-03-11 (5 years ago)
Launch vehicle
FALCON 9
Launch site
Air Force Eastern Test Range (AFETR)
Object type
Payload
Rocket body
Debris
Shape & HBR
Box + 1 Pan, 10.1 m
Radar Cross Section
13.562 m², Large (>1 m²)

Expand to show TLE details & history
Last TLE update: 1 day ago

TLE from 1 day ago
0 STARLINK-2413
1 47827U 21018AS  25292.00319159 -.00000412  00000-0 -87345-5 0  9999
2 47827  53.0525 157.9151 0001332  82.2321 277.8819 15.06401565255430
Epoch: 2025-10-19T00:04Z
TLE epoch observation values (Epoch: 2025-10-19T00:04:35.753Z)
Latitude
-0.00003°
Longitude
129.04001°
Altitude
547.959 km
Speed
7.589 km/s
True Right ascension
10h 31m 39s
True Declination
0° 00' 00"
Sunlit
Object was in daylight at epoch
Visualization orbit readout
Latitude
Unknown
Longitude
Unknown
Altitude
Unknown
Speed
Unknown
Apparent Right ascension
Unknown
Apparent Declination
Unknown
Sunlit
N/A
Visualization observer readout
Local Sidereal Time
18:56:42
Azimuth
Unknown
Elevation
Unknown
Doppler factor
Unknown
Orbital elements
Apogee altitude
548.4 km
Perigee altitude
546.555 km
Semi-major axis
6,925.615 km
Eccentricity
0.00013
Inclination
53.0525°
RAAN
157.9151°
Arg. of periapsis
82.2321°
True anomaly
277.86678°
Mean anomaly
277.8819°
Eccentric anomaly
277.87434°
Mean motion
3.76579 °/min
Orbital period
95.6 mins
BSTAR
-0.0000087345
Loading maneuver chart data...
Computing Atmospheric mass density...

Documentation

Showing up to 5 results
|